Copper Harbor, MI

6:10 AM EDT on July 28, 2017 (GMT -0400)
Copper Harbor

Weather History for KP59 - August, 2013

Change the Weather History Date:

Thursday, August 8, 2013

  Actual Average Record
Temperature  
Mean Temperature 59 °F -  
Max Temperature 66 °F 69 °F 91 °F (2005)
Min Temperature 52 °F 53 °F 52 °F (2013)
Degree Days  
Heating Degree Days 6    
Growing Degree Days 9 (Base 50)    
Moisture  
Dew Point 51 °F    
Average Humidity 76    
Maximum Humidity 89    
Minimum Humidity 52    
Precipitation  
Precipitation 0.00 in - - ()
Sea Level Pressure  
Sea Level Pressure 29.97 in    
Wind  
Wind Speed 6 mph (NW)    
Max Wind Speed 15 mph    
Max Gust Speed -    
Averages and records for this station are not official NWS values.
T = Trace of Precipitation, MM = Missing Value Source: NWS Daily Summary

Daily Weather History Graph

Daily Weather History Graph

Search for Another Location

Airport or City:

Trip Planner

Search our weather history database for the weather conditions in past years. The results will help you decide how hot, cold, wet, or windy it might be!

Date:

Astronomy

Aug. 08, 2013 Rise Set
Actual Time 6:38 AM EDT 9:14 PM EDT
Civil Twilight 6:04 AM EDT 9:49 PM EDT
Nautical Twilight 5:20 AM EDT 10:32 PM EDT
Astronomical Twilight 4:28 AM EDT 11:23 PM EDT
Moon 8:37 AM EDT (8/8) 9:38 PM EDT (8/8)
Length of Visible Light 15h 45m
Length of Day
14h 35m
Waxing Crescent, 3% of the Moon is Illuminated
Aug 8
Waxing Crescent
Aug 14
First Quarter
Aug 20
Full
Aug 28
Last Quarter
Sep 5
New

Hourly Weather History & Observations

Time (EDT) Temp. Dew Point Humidity Pressure Visibility Wind Dir Wind Speed Gust Speed Precip Events Conditions
12:51 AM 55.9 °F 46.0 °F 69% 29.96 in - WSW 3.5 mph - N/A   Unknown
1:51 AM 53.1 °F 48.0 °F 83% 29.96 in - West 4.6 mph - N/A   Unknown
2:51 AM 52.0 °F 48.9 °F 89% 29.96 in - West 4.6 mph - N/A   Unknown
3:51 AM 53.1 °F 48.9 °F 86% 29.98 in - West 4.6 mph - N/A   Unknown
4:51 AM 52.0 °F 48.9 °F 89% 29.98 in - West 4.6 mph - N/A   Unknown
5:51 AM 54.0 °F 50.0 °F 86% 29.97 in - WSW 4.6 mph - N/A   Unknown
6:51 AM 53.1 °F 48.9 °F 86% 29.98 in - Variable 4.6 mph - N/A   Unknown
7:51 AM 55.9 °F 50.0 °F 80% 29.98 in - Variable 3.5 mph - N/A   Unknown
8:51 AM 61.0 °F 48.9 °F 64% 29.98 in - NNW 9.2 mph - N/A   Unknown
9:51 AM 62.1 °F 50.0 °F 65% 29.98 in - North 9.2 mph - N/A   Unknown
10:51 AM 62.1 °F 51.1 °F 67% 29.99 in - North 11.5 mph - N/A   Unknown
11:51 AM 62.1 °F 55.0 °F 78% 30.00 in - North 12.7 mph - N/A   Unknown
12:51 PM 62.1 °F 54.0 °F 75% 30.00 in - North 12.7 mph - N/A   Unknown
1:51 PM 60.1 °F 54.0 °F 80% 30.01 in - NNW 3.5 mph - N/A   Unknown
2:51 PM 60.1 °F 55.0 °F 83% 30.00 in - NNW 4.6 mph - N/A   Unknown
3:51 PM 62.1 °F 54.0 °F 75% 29.99 in - North 9.2 mph - N/A   Unknown
4:51 PM 64.9 °F 55.9 °F 73% 29.98 in - North 10.4 mph - N/A   Unknown
5:51 PM 66.0 °F 55.0 °F 68% 29.96 in - North 15.0 mph - N/A   Unknown
6:51 PM 66.0 °F 55.0 °F 68% 29.95 in - North 10.4 mph - N/A   Unknown
7:51 PM 66.0 °F 48.0 °F 52% 29.94 in - Variable 3.5 mph - N/A   Unknown
8:51 PM 63.0 °F 53.1 °F 70% 29.95 in - Calm Calm - N/A   Unknown
9:51 PM 57.0 °F 52.0 °F 83% 29.95 in - Calm Calm - N/A   Unknown
10:51 PM 57.0 °F 51.1 °F 81% 29.94 in - Variable 3.5 mph - N/A   Unknown
11:51 PM 57.9 °F 51.1 °F 78% 29.92 in - WSW 6.9 mph - N/A   Unknown